X  Close Clear throughout the day.
Conditions Temperature Feels Precipitation Wind Wind Direction UV index Pressure
23:00 clear-night Clear 49° - 8-9 mph NNE NNE - 30,08
00:00 clear-night Clear 48° - 7-9 mph North North - 30,08
01:00 clear-night Clear 47° - 8-9 mph North North - 30,09
02:00 clear-night Clear 46° - 8-10 mph NNE NNE - 30,07
03:00 clear-night Clear 45° - 9-10 mph NNE NNE - 30,08
04:00 clear-night Clear 44° - 8-10 mph NE NE - 30,10
05:00 clear-night Clear 43° - 9-11 mph NNE NNE - 30,12
06:00 clear-night Clear 42° 0 in 1% 9-11 mph NNE NNE - 30,14
07:00 clear-night Clear 41° 36° 0 in 1% 9-13 mph NNE NNE - 30,17
08:00 clear-day Clear 42° 36° - 10-14 mph NNE NNE - 30,17
09:00 clear-day Clear 49° 0 in 1% 11-18 mph NNE NNE uv-1 30,18
10:00 clear-day Clear 54° 0 in 1% 12-19 mph NE NE uv-2 30,17
11:00 clear-day Clear 58° - 13-20 mph NE NE uv-3 30,16
12:00 clear-day Clear 61° - 11-17 mph NE NE uv-3 30,14
13:00 clear-day Clear 63° - 10-14 mph NE NE uv-3 30,10
14:00 clear-day Clear 63° - 10-13 mph ENE ENE uv-2 30,08
15:00 clear-day Clear 62° - 10-14 mph NE NE uv-1 30,07
16:00 clear-day Clear 60° - 11-16 mph NE NE - 30,09
17:00 clear-day Clear 57° - 11-19 mph NE NE - 30,11
18:00 clear-night Clear 54° - 12-20 mph NE NE - 30,14
19:00 clear-night Clear 51° - 13-22 mph NE NE - 30,17
20:00 clear-night Clear 49° 43° - 14-24 mph NE NE - 30,19
21:00 clear-night Clear 49° 43° - 15-27 mph NE NE - 30,20
22:00 clear-night Clear 48° 42° - 16-31 mph NE NE - 30,20
23:00 clear-night Clear 48° 42° - 16-33 mph NE NE - 30,21
00:00 clear-night Clear 48° 42° - 16-32 mph NE NE - 30,22
01:00 clear-night Clear 47° 40° - 15-29 mph NE NE - 30,23
02:00 clear-night Clear 46° 40° - 15-26 mph NE NE - 30,24
03:00 clear-night Clear 46° 39° - 14-23 mph NE NE - 30,25
04:00 clear-night Clear 45° 38° - 14-20 mph NE NE - 30,26
05:00 clear-night Clear 44° 37° - 13-17 mph NNE NNE - 30,27
06:00 clear-night Clear 43° 36° - 13-17 mph NNE NNE - 30,30
07:00 clear-night Clear 42° 35° 0 in 1% 13-18 mph NNE NNE - 30,32
08:00 clear-day Clear 42° 35° 0 in 1% 12-19 mph NNE NNE - 30,33
09:00 clear-day Clear 46° 40° 0 in 1% 12-20 mph NE NE uv-1 30,33
10:00 clear-day Clear 51° 0 in 1% 12-20 mph NE NE uv-2 30,32
11:00 clear-day Clear 55° - 12-19 mph NE NE uv-3 30,30
12:00 clear-day Clear 58° - 11-17 mph ENE ENE uv-3 30,27
13:00 clear-day Clear 61° - 9-13 mph ENE ENE uv-3 30,24
14:00 clear-day Clear 62° - 8-10 mph ENE ENE uv-2 30,21
15:00 clear-day Clear 62° - 7-8 mph NE NE uv-1 30,20
16:00 clear-day Clear 61° - 7-7 mph NNE NNE - 30,19
17:00 clear-day Clear 58° - 6-7 mph NNE NNE - 30,20
18:00 clear-night Clear 54° - 7-7 mph NE NE - 30,22
19:00 clear-night Clear 50° - 9-9 mph NE NE - 30,25
20:00 clear-night Clear 47° - 10-10 mph NNE NNE - 30,28
21:00 clear-night Clear 45° - 10-10 mph NNE NNE - 30,28
22:00 clear-night Clear 45° - 10-10 mph NNE NNE - 30,29
23:00 clear-night Clear 44° - 10-10 mph NE NE - 30,30